| time (UTC) | temp F | wind direction | speed knots | gust knots | rain 1hr in | rain 24hr in | rain mn in | humidity % | barometer mb |
| 20260506103048 | 57 | 13 | 0.0 | 0.0 | 0.00 | 0.00 | 0.00 | 60 | 1010.2 |
| 20260506101550 | 55 | 11 | 0.9 | 0.0 | 0.00 | 0.00 | 0.00 | 63 | 1010.1 |
| 20260506100057 | 54 | 44 | 0.9 | 0.0 | 0.00 | 0.00 | 0.00 | 62 | 1010.1 |
| 20260506094536 | 54 | 19 | 0.9 | 0.0 | 0.00 | 0.00 | 0.00 | 62 | 1010.1 |
| 20260506093042 | 53 | 11 | 0.9 | 0.0 | 0.00 | 0.00 | 0.00 | 62 | 1010.1 |
| 20260506091537 | 53 | 19 | 0.9 | 0.0 | 0.00 | 0.00 | 0.00 | 62 | 1010.2 |
| 20260506090033 | 53 | 36 | 1.7 | 0.0 | 0.00 | 0.00 | 0.00 | 58 | 1010.1 |
| 20260506084540 | 54 | 18 | 0.9 | 0.0 | 0.00 | 0.00 | 0.00 | 60 | 1010.1 |
| 20260506083033 | 54 | 5 | 0.9 | 0.0 | 0.00 | 0.00 | 0.00 | 58 | 1009.9 |
| 20260506081540 | 54 | 11 | 0.9 | 0.0 | 0.00 | 0.00 | 0.00 | 58 | 1009.7 |
| 20260506073038 | 53 | 43 | 0.0 | 0.0 | 0.00 | 0.00 | 0.00 | 47 | 1009.8 |
| 20260506071525 | 52 | 44 | 0.0 | 0.0 | 0.00 | 0.00 | 0.00 | 50 | 1009.8 |
| 20260506061514 | 50 | 24 | 0.0 | 0.0 | 0.00 | 0.00 | 0.00 | 53 | 1010.0 |
| 20260506044703 | 42 | 317 | 0.0 | 0.0 | 0.00 | 0.00 | 0.00 | 69 | 1010.3 |
| 20260506043107 | 41 | 302 | 0.0 | 0.0 | 0.00 | 0.00 | 0.00 | 70 | 1010.2 |
| 20260506041603 | 40 | 340 | 0.0 | 0.0 | 0.00 | 0.00 | 0.00 | 72 | 1010.3 |
| 20260506040055 | 40 | 340 | 0.0 | 0.0 | 0.00 | 0.00 | 0.00 | 70 | 1010.2 |
| 20260506034625 | 39 | 9 | 0.0 | 0.0 | 0.00 | 0.00 | 0.00 | 70 | 1010.2 |
| 20260506033101 | 39 | 9 | 0.0 | 0.0 | 0.00 | 0.00 | 0.00 | 71 | 1010.3 |
| 20260506031553 | 39 | 9 | 0.0 | 0.0 | 0.00 | 0.00 | 0.00 | 70 | 1010.3 |
| 20260506030052 | 39 | 9 | 0.0 | 0.0 | 0.00 | 0.00 | 0.00 | 70 | 1010.5 |
| 20260506024551 | 40 | 9 | 0.0 | 0.0 | 0.00 | 0.00 | 0.00 | 70 | 1010.5 |
| 20260506023106 | 40 | 9 | 0.0 | 0.0 | 0.00 | 0.00 | 0.00 | 70 | 1010.6 |
| 20260506021548 | 41 | 9 | 0.0 | 0.0 | 0.00 | 0.00 | 0.00 | 69 | 1010.7 |
| 20260506020047 | 40 | 9 | 0.0 | 0.0 | 0.00 | 0.00 | 0.00 | 70 | 1010.8 |
| 20260506014545 | 41 | 9 | 0.0 | 0.0 | 0.00 | 0.00 | 0.00 | 70 | 1010.8 |
| 20260506013043 | 41 | 9 | 0.0 | 0.0 | 0.00 | 0.00 | 0.00 | 70 | 1010.6 |
| 20260506011540 | 42 | 9 | 0.0 | 0.0 | 0.00 | 0.00 | 0.00 | 72 | 1010.5 |
| 20260506010045 | 42 | 9 | 0.0 | 0.0 | 0.00 | 0.00 | 0.00 | 74 | 1010.4 |
| 20260506004558 | 42 | 9 | 0.0 | 0.0 | 0.00 | 0.00 | 0.00 | 76 | 1010.3 |
| 20260506003045 | 42 | 9 | 0.0 | 0.0 | 0.00 | 0.00 | 0.00 | 78 | 1010.4 |
| 20260506001539 | 42 | 9 | 0.0 | 0.0 | 0.00 | 0.00 | 0.00 | 79 | 1010.3 |
| 20260506000034 | 42 | 9 | 0.0 | 0.0 | 0.00 | 0.00 | 0.00 | 80 | 1010.3 |
| 20260505234555 | 42 | 9 | 0.0 | 0.0 | 0.00 | 0.00 | 0.00 | 80 | 1010.3 |
| 20260505233037 | 43 | 9 | 0.0 | 0.0 | 0.00 | 0.00 | 0.00 | 80 | 1010.2 |
| 20260505231534 | 43 | 9 | 0.0 | 0.0 | 0.00 | 0.00 | 0.00 | 81 | 1010.3 |
| 20260505230038 | 42 | 9 | 0.0 | 0.0 | 0.00 | 0.00 | 0.00 | 82 | 1010.3 |
| 20260505224529 | 42 | 9 | 0.0 | 0.0 | 0.00 | 0.00 | 0.00 | 83 | 1010.5 |
| 20260505223025 | 42 | 9 | 0.0 | 0.0 | 0.00 | 0.00 | 0.00 | 83 | 1010.7 |
| 20260505221524 | 42 | 9 | 0.0 | 0.0 | 0.00 | 0.00 | 0.00 | 83 | 1010.7 |
| 20260505220030 | 42 | 9 | 0.0 | 0.0 | 0.00 | 0.00 | 0.00 | 82 | 1010.7 |
| 20260505214524 | 42 | 9 | 0.0 | 0.0 | 0.00 | 0.00 | 0.00 | 82 | 1010.7 |
| 20260505213021 | 42 | 9 | 0.0 | 0.0 | 0.00 | 0.00 | 0.00 | 82 | 1010.7 |
| 20260505211521 | 42 | 9 | 0.0 | 0.0 | 0.00 | 0.00 | 0.00 | 82 | 1010.8 |
| 20260505210019 | 42 | 9 | 0.0 | 0.0 | 0.00 | 0.00 | 0.00 | 81 | 1010.9 |
| 20260505204518 | 43 | 9 | 0.0 | 0.0 | 0.00 | 0.00 | 0.00 | 80 | 1010.9 |
| 20260505203017 | 43 | 9 | 0.0 | 0.0 | 0.00 | 0.00 | 0.00 | 79 | 1010.8 |
| 20260505201522 | 43 | 9 | 0.0 | 0.0 | 0.00 | 0.00 | 0.00 | 77 | 1010.8 |
| 20260505200014 | 44 | 9 | 0.0 | 0.0 | 0.00 | 0.00 | 0.00 | 75 | 1010.9 |
| 20260505194528 | 45 | 9 | 0.0 | 0.0 | 0.00 | 0.00 | 0.00 | 73 | 1010.8 |
| 20260505193029 | 45 | 9 | 0.0 | 0.0 | 0.00 | 0.00 | 0.00 | 72 | 1010.7 |
| 20260505191509 | 46 | 9 | 0.0 | 0.0 | 0.00 | 0.00 | 0.00 | 69 | 1010.8 |
| 20260505190011 | 47 | 9 | 0.0 | 0.0 | 0.00 | 0.00 | 0.00 | 68 | 1010.7 |
| 20260505184507 | 48 | 9 | 0.0 | 0.0 | 0.00 | 0.00 | 0.00 | 65 | 1010.7 |
| 20260505183012 | 49 | 9 | 0.0 | 0.0 | 0.00 | 0.00 | 0.00 | 62 | 1010.5 |
| 20260505181508 | 50 | 360 | 0.0 | 0.0 | 0.00 | 0.00 | 0.00 | 61 | 1010.6 |
| 20260505180006 | 50 | 360 | 0.0 | 0.0 | 0.00 | 0.00 | 0.00 | 59 | 1010.6 |
| 20260505174508 | 51 | 360 | 0.0 | 0.0 | 0.00 | 0.00 | 0.00 | 58 | 1010.5 |
| 20260505173005 | 51 | 13 | 0.0 | 0.0 | 0.00 | 0.00 | 0.00 | 56 | 1010.5 |
| 20260505171505 | 52 | 355 | 0.0 | 0.0 | 0.00 | 0.00 | 0.00 | 56 | 1010.6 |
| 20260505170006 | 53 | 15 | 0.0 | 0.0 | 0.00 | 0.00 | 0.00 | 56 | 1010.6 |
| 20260505164503 | 53 | 346 | 0.0 | 0.0 | 0.00 | 0.00 | 0.00 | 58 | 1010.7 |
| 20260505163002 | 54 | 355 | 0.0 | 0.0 | 0.00 | 0.00 | 0.00 | 56 | 1010.6 |
| 20260505161502 | 53 | 350 | 0.0 | 0.0 | 0.00 | 0.00 | 0.00 | 61 | 1010.6 |
| 20260505153100 | 54 | 360 | 0.0 | 0.0 | 0.00 | 0.00 | 0.00 | 64 | 1010.8 |
| 20260505151558 | 54 | 33 | 0.0 | 0.0 | 0.00 | 0.00 | 0.00 | 64 | 1010.7 |
| 20260505124551 | 54 | 9 | 0.0 | 0.0 | 0.00 | 0.00 | 0.00 | 63 | 1010.8 |
| 20260505123108 | 54 | 323 | 0.9 | 0.0 | 0.00 | 0.00 | 0.00 | 65 | 1010.9 |
| 20260505121550 | 53 | 306 | 1.7 | 0.0 | 0.00 | 0.00 | 0.00 | 68 | 1010.9 |
| 20260505120050 | 53 | 5 | 0.9 | 0.0 | 0.00 | 0.00 | 0.00 | 66 | 1010.9 |
| 20260505114610 | 54 | 334 | 0.9 | 0.0 | 0.00 | 0.00 | 0.00 | 65 | 1010.9 |
| 20260505113049 | 54 | 350 | 0.9 | 0.0 | 0.00 | 0.00 | 0.00 | 66 | 1011.0 |
| 20260505111602 | 55 | 5 | 0.9 | 0.0 | 0.00 | 0.00 | 0.00 | 64 | 1010.9 |